FW6924 Weather Reports


Display with metric or nautical units.
time (UTC)temp
F
wind
direction
speed
MPH
gust
MPH
rain 1hr
in
rain 24hr
in
rain mn
in
humidity
%
barometer
mb
20260502152002 84 225 9.0 18.0 0.00 0.00 0.00 76 1009.9
20260502150959 84 176 10.0 17.0 0.00 0.00 0.00 77 1010.0
20260502122959 74 206 1.0 7.0 0.00 0.00 0.00 93 1009.1
20260502122006 73 177 1.0 5.0 0.00 0.00 0.00 93 1009.1
20260502121000 72 193 2.0 7.0 0.00 0.00 0.00 94 1009.1
20260502114001 70 163 1.0 3.0 0.00 0.00 0.00 94 1009.0
20260502112001 69 133 1.0 4.0 0.00 0.00 0.00 94 1008.9
20260502111000 69 197 1.0 3.0 0.00 0.00 0.00 93 1009.0
20260502110004 69 145 1.0 3.0 0.00 0.00 0.00 94 1009.0
20260502104959 68 146 1.0 4.0 0.00 0.00 0.00 94 1008.9
20260502104001 68 153 1.0 5.0 0.00 0.00 0.00 94 1008.9
20260502102959 68 163 0.0 4.0 0.00 0.00 0.00 93 1008.8
20260502102001 68 136 0.0 0.0 0.00 0.00 0.00 94 1009.0
20260502091000 67 189 0.0 3.0 0.00 0.00 0.00 94 1009.5
20260502071000 68 270 0.0 0.0 0.00 0.00 0.00 93 1009.2
20260502070001 68 270 0.0 0.0 0.00 0.00 0.00 93 1009.2
20260502064001 67 270 0.0 0.0 0.00 0.00 0.00 92 1009.3
20260502061958 67 270 0.0 0.0 0.00 0.00 0.00 91 1009.6
20260502060001 68 270 0.0 0.0 0.00 0.00 0.00 90 1009.7
20260502055000 68 270 0.0 0.0 0.00 0.00 0.00 90 1009.6
20260502053958 68 270 0.0 0.0 0.00 0.00 0.00 90 1009.8
20260502053001 68 270 0.0 0.0 0.00 0.00 0.00 90 1010.0
20260502051958 69 270 0.0 0.0 0.00 0.00 0.00 89 1010.2
20260502051000 69 270 0.0 0.0 0.00 0.00 0.00 89 1010.3
20260502050002 69 270 0.0 0.0 0.00 0.00 0.00 88 1010.3
20260502045002 69 270 0.0 0.0 0.00 0.00 0.00 88 1010.3
20260502044000 70 270 0.0 0.0 0.00 0.00 0.00 86 1010.3
20260502043003 70 270 0.0 0.0 0.00 0.00 0.00 86 1010.3
20260502042000 70 270 0.0 0.0 0.00 0.00 0.00 86 1010.2
20260502040005 71 270 0.0 0.0 0.00 0.00 0.00 84 1010.3
20260502035000 72 270 0.0 0.0 0.00 0.00 0.00 84 1010.3
20260502034000 72 270 0.0 0.0 0.00 0.00 0.00 84 1010.1
20260502033000 72 270 0.0 0.0 0.00 0.00 0.00 85 1010.3
20260502031000 73 270 0.0 0.0 0.00 0.00 0.00 84 1010.4
20260502030004 73 270 0.0 0.0 0.00 0.00 0.00 83 1010.3
20260502025000 73 270 0.0 2.0 0.00 0.00 0.00 83 1010.3
20260502024003 73 270 0.0 2.0 0.00 0.00 0.00 82 1010.3
20260502022002 74 267 0.0 0.0 0.00 0.00 0.00 80 1010.5
20260502021000 74 267 0.0 0.0 0.00 0.00 0.00 79 1010.3
20260502020007 74 267 0.0 0.0 0.00 0.00 0.00 78 1010.2
20260502015000 75 267 0.0 0.0 0.00 0.00 0.00 78 1010.2
20260502014002 75 267 0.0 0.0 0.00 0.00 0.00 77 1010.0
20260502012002 76 267 1.0 3.0 0.00 0.00 0.00 76 1009.8
20260502011000 76 267 2.0 5.0 0.00 0.00 0.00 75 1009.7
20260502010005 76 271 2.0 7.0 0.00 0.00 0.00 74 1009.8
20260502005000 77 267 1.0 6.0 0.00 0.00 0.00 73 1009.7
20260502004002 77 252 2.0 6.0 0.00 0.00 0.00 73 1009.5
20260502003000 78 254 2.0 5.0 0.00 0.00 0.00 72 1009.3
20260502002002 78 245 3.0 5.0 0.00 0.00 0.00 71 1009.2
20260502001000 79 261 4.0 8.0 0.00 0.00 0.00 70 1009.2
20260502000004 79 254 4.0 8.0 0.00 0.00 0.00 68 1009.2
20260501234000 81 227 4.0 11.0 0.00 0.00 0.00 65 1008.8
20260501233000 81 234 4.0 9.0 0.00 0.00 0.00 65 1008.7
20260501231000 82 229 5.0 9.0 0.00 0.00 0.00 63 1008.4
20260501222000 84 194 5.0 10.0 0.00 0.00 0.00 61 1008.2
20260501221002 84 219 5.0 9.0 0.00 0.00 0.00 61 1008.3
20260501220002 84 198 5.0 9.0 0.00 0.00 0.00 60 1008.3
20260501215000 84 233 5.0 10.0 0.00 0.00 0.00 60 1008.0
20260501214006 85 224 6.0 14.0 0.00 0.00 0.00 61 1008.2
20260501212959 84 245 6.0 11.0 0.00 0.00 0.00 60 1008.3
20260501212002 85 200 6.0 11.0 0.00 0.00 0.00 58 1008.5
20260501210959 86 222 5.0 11.0 0.00 0.00 0.00 57 1008.4
20260501210004 86 198 6.0 10.0 0.00 0.00 0.00 56 1008.6
20260501204959 86 227 6.0 11.0 0.00 0.00 0.00 55 1008.5
20260501204002 86 244 7.0 14.0 0.00 0.00 0.00 54 1008.7
20260501203000 87 248 6.0 10.0 0.00 0.00 0.00 54 1008.9
20260501202002 87 246 7.0 15.0 0.00 0.00 0.00 54 1009.3
20260501200004 87 267 7.0 12.0 0.00 0.00 0.00 53 1009.4
20260501195000 87 213 7.0 11.0 0.00 0.00 0.00 55 1009.6
20260501192002 87 205 7.0 15.0 0.00 0.00 0.00 57 1009.9
20260501191000 86 257 8.0 16.0 0.00 0.00 0.00 56 1010.0
20260501190004 87 191 7.0 11.0 0.00 0.00 0.00 57 1009.9
20260501185000 87 232 6.0 16.0 0.00 0.00 0.00 58 1010.2
20260501184000 86 182 7.0 14.0 0.00 0.00 0.00 58 1010.2
20260501183002 87 234 7.0 12.0 0.00 0.00 0.00 60 1010.2
20260501182000 87 242 7.0 12.0 0.00 0.00 0.00 57 1010.3
20260501181002 87 218 6.0 12.0 0.00 0.00 0.00 58 1010.4
20260501180002 87 194 6.0 11.0 0.00 0.00 0.00 58 1010.6
20260501175000 87 251 6.0 14.0 0.00 0.00 0.00 59 1010.7
20260501174000 87 234 7.0 11.0 0.00 0.00 0.00 59 1010.7
20260501173000 87 200 5.0 11.0 0.00 0.00 0.00 57 1010.9
20260501171959 87 245 6.0 12.0 0.00 0.00 0.00 54 1011.1
20260501171007 87 215 5.0 12.0 0.00 0.00 0.00 54 1011.1
20260501170005 87 252 6.0 11.0 0.00 0.00 0.00 53 1010.9
20260501165000 87 244 6.0 12.0 0.00 0.00 0.00 55 1010.8
20260501164000 86 197 6.0 12.0 0.00 0.00 0.00 57 1011.1
20260501161000 86 142 3.0 7.0 0.00 0.00 0.00 61 1011.4
20260501160001 85 161 3.0 7.0 0.00 0.00 0.00 62 1011.3
20260501155001 85 143 3.0 9.0 0.00 0.00 0.00 63 1011.3
20260501153959 83 259 3.0 7.0 0.00 0.00 0.00 67 1011.4